Regional Weather Roundup
Issued by NWS Jackson, KY

Home | Current Version | Previous Version | Graphics & Text | Print | Product List | Glossary On
Versions: 1 2 3 4 5 6 7 8 9 10 11 12 13 14 15 16 17 18 19 20 21 22 23 24 25 26 27 28 29 30 31 32 33 34 35 36 37 38 39 40 41 42 43 44 45 46 47 48 49 50
000
ASUS43 KJKL 300610
RWRJKL

EAST KENTUCKY HOURLY WEATHER ROUNDUP
NATIONAL WEATHER SERVICE JACKSON KY
200 AM EDT THU JUL 30 2015

NOTE: "FAIR" INDICATES FEW OR NO CLOUDS BELOW 12,000 FEET WITH
NO SIGNIFICANT WEATHER AND/OR OBSTRUCTIONS TO VISIBILITY.

* THESE REPORTS ARE NOT UNDER NWS QUALITY CONTROL AND MAY NOT
  REPORT WEATHER SUCH AS PRECIPITATION AND FOG.

KYZ079-080-083-085-087-088-110-112-115-119-120-300700
...EASTERN KENTUCKY...

CITY           SKY/WX    TMP DP  RH WIND       PRES   REMARKS
JACKSON        MOCLDY    74  70  87 VRB3      30.03S
6HR MIN TEMP:  74; 6HR MAX TEMP:  82;

LONDON         MOCLDY    74  66  76 CALM      30.03S
6HR MIN TEMP:  74; 6HR MAX TEMP:  86;

SOMERSET*      MOCLDY    70  70 100 CALM      30.03F
MONTICELLO*    CLOUDY    71  71 100 CALM      30.06S
6HR MIN TEMP:  71; 6HR MAX TEMP:  89; 6HR PCP:  0.03;

WILLIAMSBURG*  CLEAR     72  72 100 NW3       30.03F
MIDDLESBORO*   PTCLDY    74  73  96 CALM      30.02S
6HR MIN TEMP:  74; 6HR MAX TEMP:  85;

HAZARD APT*    CLEAR     75  75 100 W5        30.03R
BLACK MTN*       N/A     68  68 100 NE1         N/A
PIKEVILLE APT* CLEAR     75  73  94 CALM      30.02F FOG
BIG SANDY*     MOCLDY    77  74  91 CALM      30.00F
6HR MIN TEMP:  77; 6HR MAX TEMP:  85;

MOREHEAD APT*  MOCLDY    73  72  94 CALM      30.02F
$$

KYZ035-036-041-042-044-050-067-078-099-300700
...CENTRAL KENTUCKY...

CITY           SKY/WX    TMP DP  RH WIND       PRES   REMARKS
MT STERLING*   MOCLDY    72  72 100 W3        30.03S
FLEMING/MASON* CLEAR     72  72 100 W7        30.01S
DANVILLE*      CLOUDY    72  68  88 CALM      30.03F
RICHMOND*      CLOUDY    70  68  94 W3        30.02S
LEXINGTON      MOCLDY    72  70  93 VRB3      30.02S
6HR MIN TEMP:  72; 6HR MAX TEMP:  77; 6HR PCP:  0.10;

FRANKFORT      CLOUDY    73  71  93 NW5       30.01S
6HR MIN TEMP:  72; 6HR MAX TEMP:  73; 6HR PCP:  0.02;

$$

KYZ091>093-OHZ055-061-077-WVZ005-015-034-035-042-300700
...SOUTHERN OHIO/WEST VIRGINIA...

CITY           SKY/WX    TMP DP  RH WIND       PRES   REMARKS
COVINGTON      MOCLDY    75  70  84 NW10      30.01R
COLUMBUS       MOCLDY    76  73  91 NW6       29.96S
DAYTON         CLOUDY    75  69  81 NW8       30.01S
WILMINGTON     MOCLDY    75  72  90 W8        29.99S FOG
HUNTINGTON     MOCLDY    76  72  87 CALM      29.97F
CHARLESTON     CLOUDY    74  71  91 CALM      29.97F FOG
PINEVILLE*     CLOUDY    71  71 100 MISG      30.09F FOG
BECKLEY        MOCLDY    70  67  90 CALM      30.08F
BLUEFIELD      PTCLDY    72  66  81 SW5       30.10F
$$

VAZ002-007-008-TNZ017-027-036-066-071-300700
...SOUTHWEST VIRGINIA/EAST TENNESSEE...

CITY           SKY/WX    TMP DP  RH WIND       PRES   REMARKS
WISE*          PTCLDY    73  72  94 CALM      30.11F
ABINGDON*      CLEAR     73  69  86 E3        30.07F
BRISTOL        PTCLDY    74  71  91 CALM      30.03F
KNOXVILLE      PTCLDY    78  74  87 SE3       29.98F
OAK RIDGE      CLEAR     78  74  87 CALM      29.99F
CROSSVILLE     PTCLDY    73  68  84 NW6       30.08R
NASHVILLE      PTCLDY    79  72  79 N5        30.01F
$$

...KEY TO REMARKS...
VSB - VISIBILITY IN MILES
WCI - WIND CHILL INDEX
HX  - HEAT INDEX

$$


USA.gov is the U.S. government's official web portal to all federal, state and local government web resources and services.